AAL1585 KLAX-KCLT

Flight info

Callsign AAL1585
Flight time N/A
Altitude 35000
Route DOTSS2 CNERY BLH J169 TFD J50 SSO EWM J66 ABI J4 FUZ UIM ELD IZAAC Q30 VLKNN THRSR BESTT JONZE5
Aircraft A321/M-SDE3FGHIRWY/LB1

Departure

Time 2026-05-05 21:49
Airport Los Angeles International Airport (KLAX)

Arrival

Time N/A
Airport Charlotte Douglas International Airport (KCLT)
Time Latitude Longitude Altitude Speed Heading
2026-05-05 21:19 33.93963 -118.40655 123 ft 0 kts 352°
2026-05-05 21:37 33.93952 -118.40654 121 ft 4 kts 353°
2026-05-05 21:37 33.93926 -118.40650 123 ft 4 kts 343°
2026-05-05 21:38 33.93905 -118.40635 122 ft 4 kts 300°
2026-05-05 21:38 33.93899 -118.40608 122 ft 2 kts 263°
2026-05-05 21:38 33.93900 -118.40601 121 ft 0 kts 263°
2026-05-05 21:41 33.93899 -118.40605 126 ft 1 kts 263°
2026-05-05 21:41 33.93897 -118.40629 124 ft 6 kts 263°
2026-05-05 21:41 33.93887 -118.40693 126 ft 10 kts 250°
2026-05-05 21:42 33.93823 -118.40712 125 ft 14 kts 127°
2026-05-05 21:42 33.93818 -118.40584 126 ft 18 kts 83°
2026-05-05 21:42 33.93834 -118.40433 126 ft 18 kts 82°
2026-05-05 21:42 33.93850 -118.40282 126 ft 18 kts 83°
2026-05-05 21:43 33.93865 -118.40129 122 ft 19 kts 83°
2026-05-05 21:43 33.93881 -118.39974 126 ft 19 kts 83°
2026-05-05 21:43 33.93897 -118.39816 121 ft 19 kts 83°
2026-05-05 21:43 33.93913 -118.39659 125 ft 19 kts 83°
2026-05-05 21:44 33.93929 -118.39495 124 ft 20 kts 83°
2026-05-05 21:44 33.93946 -118.39334 125 ft 20 kts 82°
2026-05-05 21:44 33.93964 -118.39168 125 ft 20 kts 83°
2026-05-05 21:44 33.93981 -118.38993 125 ft 23 kts 83°
2026-05-05 21:45 33.94001 -118.38804 124 ft 23 kts 82°
2026-05-05 21:45 33.94021 -118.38613 125 ft 23 kts 83°
2026-05-05 21:45 33.94039 -118.38426 122 ft 22 kts 82°
2026-05-05 21:45 33.94056 -118.38249 124 ft 20 kts 83°
2026-05-05 21:46 33.94073 -118.38100 125 ft 15 kts 82°
2026-05-05 21:46 33.94074 -118.38019 125 ft 2 kts 109°
2026-05-05 21:46 33.94062 -118.38007 123 ft 3 kts 147°
2026-05-05 21:46 33.94040 -118.37999 125 ft 5 kts 168°
2026-05-05 21:47 33.93986 -118.38031 124 ft 11 kts 250°
2026-05-05 21:47 33.93980 -118.38081 124 ft 0 kts 263°
2026-05-05 21:47 33.93979 -118.38087 125 ft 1 kts 263°
2026-05-05 21:47 33.93978 -118.38101 125 ft 3 kts 262°
2026-05-05 21:48 33.93971 -118.38168 125 ft 20 kts 263°
2026-05-05 21:48 33.93924 -118.38615 124 ft 87 kts 263°
2026-05-05 21:48 33.93825 -118.39576 122 ft 142 kts 263°
2026-05-05 21:48 33.93681 -118.40918 273 ft 172 kts 264°
2026-05-05 21:49 33.93586 -118.42301 1099 ft 156 kts 266°
2026-05-05 21:49 33.93584 -118.43596 1715 ft 155 kts 272°
2026-05-05 21:49 33.93657 -118.44921 2037 ft 165 kts 271°
2026-05-05 21:49 33.93732 -118.46357 2171 ft 178 kts 272°
2026-05-05 21:50 33.93829 -118.47895 2281 ft 192 kts 274°
2026-05-05 21:50 33.93918 -118.49546 2420 ft 205 kts 271°
2026-05-05 21:50 33.93964 -118.51369 2598 ft 230 kts 268°
2026-05-05 21:50 33.93917 -118.53362 3089 ft 243 kts 266°
2026-05-05 21:51 33.93811 -118.55425 3843 ft 251 kts 265°
2026-05-05 21:51 33.93673 -118.57551 4579 ft 258 kts 265°
2026-05-05 21:51 33.93512 -118.59738 5174 ft 265 kts 264°
2026-05-05 21:51 33.93006 -118.61875 5777 ft 271 kts 240°